Regional Weather Roundup
Issued by NWS Grand Forks, ND

Home | Current Version | Previous Version | Graphics & Text | Print | Product List | Glossary On
Versions: 1 2 3 4 5 6 7 8 9 10 11 12 13 14 15 16 17 18 19 20 21 22 23 24 25 26 27 28 29 30 31 32 33 34 35 36 37 38 39 40 41 42 43 44 45 46 47 48 49 50
000
ASUS43 KFGF 051410
RWRFGF
PRAIRIE TO PINES  WEATHER ROUNDUP
NATIONAL WEATHER SERVICE EASTERN NORTH DAKOTA/GRAND FORKS ND
900 AM CDT SUN JUL 05 2015

 **SATELLITE DATA USED TO AUGMENT SKY COVER AT AUTOMATED STATIONS**
 *****  WEATHER ACROSS EASTERN NORTH DAKOTA  *****

CITY           SKY/WX    TMP DP  RH WIND       PRES   REMARKS
GRAND FORKS    PTSUNNY   73  68  84 S13       29.70F
GRAND FRKS AFB PTSUNNY   73  68  84 S13       29.70F
GRAND FRKS NWS   N/A     72 N/A N/A S12         N/A
DEVILS LAKE    CLOUDY    68  63  83 N12       29.72S
FARGO          SUNNY     75  65  70 SE18G26   29.74F
WAHPETON ARPT  SUNNY     72  63  73 S14       29.78F
$$

 ***** WEATHER ACROSS CENTRAL AND WESTERN NORTH DAKOTA  *****

CITY           SKY/WX    TMP DP  RH WIND       PRES   REMARKS
BISMARCK       LGT RAIN  71  69  93 NW13      29.80S FOG
MINOT          LGT RAIN  64  62  93 N8        29.82F FOG
JAMESTOWN      PTSUNNY   76  68  76 SE6       29.73S
MINOT AFB      LGT RAIN  64  64 100 N13       29.81F
GARRISON         N/A     64  62  93 N14       29.85R
WILLISTON      CLOUDY    67  63  87 N13       29.89R FOG
DICKINSON      PTSUNNY   64  58  80 N21G32    29.85S
HETTINGER      TSTM      63  61  93 N23G32    29.86S FOG
$$

 *****  OTHER AIRPORT OBSERVATIONS IN OUR AREA  *****

CITY           SKY/WX    TMP DP  RH WIND       PRES   REMARKS
WALHALLA       LGT RAIN  64  64 100 MISG      29.78F
GRAFTON AIRPOR CLOUDY    68  68 100 N6        29.74F THUNDER
VALLEY CITY AR FAIR      72  72 100 SE10      29.74F
CANDO          CLOUDY    64  63  94 N21G28    29.77R
CAVALIER APRT  CLOUDY    64  64 100 N7        29.76F
GWINNER        FAIR      77  68  73 S14       29.76F
SHEYENNE NWR     N/A     75  68  77 S12       29.95
ROLLA          FOG       61  61 100 N16       29.82S VSB 1/4
 ***** THE ABOVE OBSERVATIONS ARE NON NWS ARE NOT QUALITY
       CONTROLLED AND MAY MIS-REPORT RAIN FOR SNOW...
$$

  *****  WEATHER ACROSS NORTHERN MINNESOTA  *****

CITY           SKY/WX    TMP DP  RH WIND       PRES   REMARKS
FLAG ISLAND    NOT AVBL
WARROAD        MOSUNNY   68  64  88 NW5       29.80S
ROSEAU         PTSUNNY   66  61  82 CALM      29.78F
HALLOCK        PTSUNNY   68  66  94 N3        29.76S
THF RVR FALLS  CLOUDY    70  64  83 S12       29.74F
BAUDETTE       MOSUNNY   72  65  78 CALM      29.77F
WASKISH        FAIR      70  66  88 S6        29.78F
CROOKSTON      PTSUNNY   73  66  78 S17       29.73F
$$
  *****  WEATHER ACROSS CENTRAL AND WEST MINNESOTA  *****

CITY           SKY/WX    TMP DP  RH WIND       PRES   REMARKS
FOSSTON        PTSUNNY   70  64  83 S10G17    29.75F
BEMIDJI        CLOUDY    68  65  90 SE12      29.79F
PARK RAPIDS    CLOUDY    71  63  75 S12       29.83F
ELBOW LAKE     FAIR      71  64  80 S16       29.82F
WADENA         MOSUNNY   70  63  78 SE7       29.83F
DETROIT LAKES  MOSUNNY   72  64  78 SE15G21   29.80F
MOORHEAD       SUNNY     73  66  78 S18       29.76F
FERGUS FALLS   MOSUNNY   72  64  78 S17       29.80R
MORRIS MN      MOSUNNY   73  64  73 SE12      29.80F
STAPLES        MOSUNNY   70  61  73 SE9       29.85F
$$
  *****  WEATHER ELSEWHERE ACROSS MINNESOTA  *****

CITY           SKY/WX    TMP DP  RH WIND       PRES   REMARKS
DULUTH         MOSUNNY   69  60  73 SW15      29.92S
INTRNTL FALLS  PTSUNNY   70  66  87 VRB5      29.82R FOG
ELY            PTSUNNY   72  63  73 SW9G16    29.89R
CLOQUET        MOSUNNY   68  61  77 S9G16     29.91F
WHEATON        SUNNY     72  64  78 SE14      29.80F
BRAINERD       PTSUNNY   71  62  73 S9        29.87F
HIBBING        CLOUDY    69  62  78 S6        29.88F
ALEXANDRIA     CLOUDY    70  63  78 S9        29.85F
SAINT CLOUD    CLOUDY    70  62  76 SE8       29.89F
MINNEAPOLIS    CLOUDY    74  61  63 S12       29.94S
$$

  *****  WEATHER ACROSS SOUTH DAKOTA  *****

CITY           SKY/WX    TMP DP  RH WIND       PRES   REMARKS
SIOUX FALLS    PTSUNNY   69  66  90 E10       29.89F FOG
BROOKINGS      PTSUNNY   70  64  83 S14       29.86S
WATERTOWN      SUNNY     73  64  73 S15G23    29.82F
HURON          SUNNY     74  65  73 S21G29    29.78F
SISSETON         N/A     77  67  71 S14       29.76F
ABERDEEN       MOSUNNY   74  67  78 MISG      29.74F
MITCHELL       SUNNY     75  66  73 SE16      29.83F
PIERRE         SUNNY     75  69  81 SE14      29.72S
MOBRIDGE       MOSUNNY   76  69  79 S9        29.71R
RAPID CITY     SUNNY     73  65  75 S3        29.75F
$$

  *****  SOME WEATHER IN NEARBY STATES *****

CITY           SKY/WX    TMP DP  RH WIND       PRES   REMARKS
GLASGOW MT     PTSUNNY   63  52  67 NW16      30.00R HAZE
GREAT FALLS MT LGT RAIN  51  50  96 N12       30.15R FOG
CHEYENNE WY    MOSUNNY   75  48  38 W17G23    30.03S
SCOTTSBLUFF NE MOSUNNY   72  64  76 NW3       29.87R
OMAHA NE       CLOUDY    70  65  84 SE7       29.94R
DES MOINES IA  CLOUDY    73  64  73 S9        29.99S
DAVENPORT IA   SUNNY     72  64  76 S7        30.07R
CHICAGO IL     SUNNY     74  61  63 S3        30.08F FOG
EAU CLAIRE WI  SUNNY     73  62  68 S12       29.99R
LA CROSSE WI   SUNNY     72  62  71 S10       30.01F
$$

  *****  SOME NATIONAL WEATHER *****

CITY           SKY/WX    TMP DP  RH WIND       PRES   REMARKS
LA GUARDIA NY  PTSUNNY   74  61  63 NW5       30.12S
RALEIGH NC     PTSUNNY   82  72  71 SW7       30.13R
ATLANTA GA     PTSUNNY   72  66  83 W9        30.16S
NEW ORLEANS LA CLOUDY    83  76  79 SW6       30.11S HX  91
OKLAHOMA CITY  MOSUNNY   80  73  79 S13       29.99S
ALBUQUERQUE NM PTSUNNY   70  59  68 S7        30.16R
SALT LAKE CITY CLOUDY    76  62  62 NW6       30.02R
LOS ANGELES CA CLOUDY    64  60  87 W7        29.97R
BOISE ID       CLOUDY    78  51  38 NE5       29.88R
SEATTLE WA     MOSUNNY   66  51  58 CALM      29.84R
$$

*** WEATHER ACROSS MANITOBA...SASKATCHEWAN AND ONTARIO ***
                ***ONTARIO***

CITY           SKY/WX    TMP DP  RH WIND       PRES   REMARKS
GERALDTON      CLOUDY    63  55  77 S9        29.90S
THUNDER BAY    CLOUDY    61  55  82 NE7       29.93R
SIOUX LOOKOUT  PTSUNNY   68  63  83 CALM      29.82F
TORONTO        PTSUNNY   73  57  56 SE6       30.12S
BIG TROUT LK   SUNNY     63  59  88 W6        29.70R FOG
PICKLE LAKE    PTSUNNY   68  61  77 W12       29.79R
DRYDEN         PTSUNNY   68  63  83 CALM      29.83R
KENORA         PTSUNNY   68  64  88 N3        29.81F
$$
                *** MANITOBA***

CITY           SKY/WX    TMP DP  RH WIND       PRES   REMARKS
BRANDON        CLOUDY    61  59  94 NW6       29.83F FOG
DAUPHIN        MOSUNNY   61  55  82 SW8       29.83F HAZE
ISLAND LAKE    CLOUDY    61  57  88 W6        29.72S SMOKE
PILOT MOUND      N/A     64  63  94 N12         N/A
THE PAS        CLOUDY    55  48  76 NW15      29.82R
THOMPSON       PTSUNNY   46  41  81 W9        29.74
WINNIPEG       CLOUDY    66  64  94 N8        29.79S FOG
LYNN LAKE      LGT RAIN  45  43  93 N10G20    29.84R
CHURCHILL      LGT RAIN  39  39 100 NE31      29.70R FOG
$$
                ***SASKATCHEWAN***

CITY           SKY/WX    TMP DP  RH WIND       PRES   REMARKS
ESTEVAN        CLOUDY    63  61  94 W5        29.89R FOG
KINDERSLEY     PTSUNNY   55  50  82 NW13      30.06R
LLOYDMINSTER   CLOUDY    54  50  87 NW10      30.05R SMOKE
PRINCE ALBERT  CLOUDY    55  50  82 NW12      29.93R SMOKE
REGINA         CLOUDY    59  54  82 NW17      29.94R SMOKE
YORKTON        CLOUDY    59  52  77 NW9       29.89R HAZE
N. BATTLEFORD  MOSUNNY   55  48  76 NW13G18   30.03R HAZE
LA RONGE       NOT AVBL
SASKATOON      SUNNY     57  50  77 NW9       29.99R
SWIFT CURRENT  PTSUNNY   55  50  82 W12G17    30.05R
$$
NOTE: THESE ARE AUTOMATED STATIONS WITH LIMITED QUALITY CONTROL
      "FAIR" INDICATES FEW OR NO CLOUDS BELOW 12,000 FEET WITH NO
      SIGNIFICANT WEATHER AND/OR OBSTRUCTIONS TO VISIBILITY.
      SKY/WX - SKY CONDITION AND SIGNIFICANT WEATHER.
      TMP - AIR TEMPERATURE.    DP   - DEWPOINT TEMPERATURE.
      RH  - RELATIVE HUMIDITY.  PRES - PRESSURE.
      HX  - HEAT INDEX.         WCI  - WIND CHILL INDEX.
$



USA.gov is the U.S. government's official web portal to all federal, state and local government web resources and services.